Location: Chuathbaluk
(61.5726°N, 159.2454°W)
Time: 23:29:04
(UTC+00:00)

Transit 4A - Pass Details

Date: 01 December 2020
Orbit: 864 x 980 km, 66.8° (Epoch: 20 January)

Event Time Altitude Azimuth Distance (km) Brightness Sun altitude
Rises 22:04:54 0° 274° (W) 3,683 10.9 6.3°
Reaches altitude 10° 22:07:32 10° 279° (W) 2,740 10.3 6.4°
Maximum altitude 22:13:51 55° 357° (N) 1,176 8.2 6.4°
Drops below altitude 10° 22:20:07 10° 75° (ENE) 2,723 10.2 6.4°
Sets 22:22:45 0° 80° (E) 3,658 10.9 6.4°
